カタログに戻る

COSMOS 1478

運用中軍事LEO
NORAD 14176·PAYLOAD·🇷🇺 Russia

打ち上げ Jul 6, 1983 から Plesetsk Cosmodrome

Loading…

次のパス (今後24時間)

TLE

最新Source: Space-Track

元期: Sep 14, 2026, 19:39 UTC

1 14176U 83069F   26257.81875016 -.00000016  00000-0 -17706-5 0  9998
2 14176  74.0230 280.9512 0011753  29.4044 145.8800 12.48264900968324

AllMySatでCOSMOS 1478をリアルタイム追跡

Download on the App Store